Location: Unspecified
(35.6961°N, 0.0000°E)
Time: 03:47:15
(UTC+00:00)

Courier 1B Rocket - Pass Details

Date: 19 May 2019
Orbit: 920 x 1202 km, 28.2° (Epoch: 24 June)

Event Time Altitude Azimuth Distance (km) Brightness Sun altitude
Rises 21:18:46 0° 266° (W) 4,025 8.7 -23.1°
Reaches altitude 10° 21:21:50 10° 259° (W) 3,028 7.9 -23.5°
Maximum altitude 21:28:40 39° 193° (SSW) 1,566 5.7 -24.3°
Enters shadow 21:29:08 39° 184° (S) 1,571 5.7 -24.4°
